Location: Killam
(52.7910°N, 111.8608°W)
Time: 16:55:35
(UTC+00:00)

Vanguard 2 Rocket - Pass Details

Date: 25 February 2026
Orbit: 553 x 3286 km, 32.9° (Epoch: 11 March)

Event Time Altitude Azimuth Distance (km) Brightness Sun altitude
Rises 23:12:45 0° 270° (W) 7,113 12.4 13.7°
Reaches altitude 10° 23:19:42 10° 257° (WSW) 5,786 12.6 12.9°
Maximum altitude 23:29:56 20° 219° (SW) 4,302 12.0 11.6°
Drops below altitude 10° 23:37:50 10° 179° (S) 4,307 10.8 10.5°
Sets 23:41:56 0° 163° (SSE) 4,845 10.8 10.0°
